Regional Weather Roundup
Issued by NWS

Home | Current Version | Previous Version | Text Only | Print | Product List | Glossary On
Versions: 1 2 3 4 5 6 7 8 9 10 11 12 13 14 15 16 17 18 19 20 21 22 23 24 25 26 27 28 29 30 31 32 33 34 35 36 37 38 39 40 41 42 43 44 45 46 47 48 49 50
000
ASUS44 KOUN 290010
RWROK

WEATHER ROUNDUP FOR OKLAHOMA
NATIONAL WEATHER SERVICE NORMAN OK
700 PM CDT THU MAY 28 2015

NOTE: "FAIR" INDICATES FEW OR NO CLOUDS BELOW 12,000 FEET WITH NO
      SIGNIFICANT WEATHER AND/OR OBSTRUCTIONS TO VISIBILITY.

OKZ001>007-009>012-014-015-017-290100-
NORTHWEST OKLAHOMA AND THE PANHANDLE

CITY           SKY/WX    TMP DP  RH WIND       PRES   REMARKS
GAGE           CLOUDY    73  64  73 S14G23    29.86F
6HR MIN TEMP:  73; 6HR MAX TEMP:  81;

GUYMON         CLOUDY    73  61  65 W9        29.97R
ENID/WOODRING  CLOUDY    79  72  78 SE12      29.88F
$$

OKZ016-021>023-033>039-044-045-290100-
SOUTHWEST OKLAHOMA

CITY           SKY/WX    TMP DP  RH WIND       PRES   REMARKS
LAWTON/REGL    LGT RAIN  69  58  67 NE6       29.92F
6HR MIN TEMP:  66; 6HR MAX TEMP:  85; 6HR PCP:  1.24;

LAWTON/FT SILL LGT RAIN  70  63  78 NW8       29.95R
FREDERICK      TSTM      69  65  86 W17G32    29.97R
CLINTON        CLOUDY    74  53  48 S17G29    29.90F
HOBART         LGT RAIN  71  67  87 S9        29.97S
ALTUS AFB      TSTM      67  63  89 SE8       29.93F
$$

OKZ018>020-024>031-290100-
CENTRAL OKLAHOMA

CITY           SKY/WX    TMP DP  RH WIND       PRES   REMARKS
OKLAHOMA CITY  CLOUDY    73  67  81 S6        29.91F
6HR MIN TEMP:  71; 6HR MAX TEMP:  84;

OKC/WILEY POST CLOUDY    73  65  75 CALM      29.92F
OKC/TINKER AFB CLOUDY    74  71  90 NE3       29.91F
STILLWATER     CLOUDY    76  70  82 SE7       29.92F
GUTHRIE        CLOUDY    76  71  85 S6        29.91F
$$

OKZ008-013-054>072-290100-
NORTHEAST OKLAHOMA

CITY           SKY/WX    TMP DP  RH WIND       PRES   REMARKS
TULSA          PTSUNNY   78  67  68 S8        29.93F
6HR MIN TEMP:  69; 6HR MAX TEMP:  81;

TULSA/JONES    MOSUNNY   79  67  66 S6        29.93F HAZE
PONCA CITY     PTSUNNY   78  67  68 SE10      29.91F
BARTLESVILLE   PTSUNNY   75  69  81 S7        29.94F
MUSKOGEE       MOSUNNY   80  69  69 S8        29.96F
$$

OKZ032-040>043-046>053-073>077-290100-
SOUTH CENTRAL/SOUTHEAST OKLAHOMA

CITY           SKY/WX    TMP DP  RH WIND       PRES   REMARKS
ARDMORE/DWNTWN CLOUDY    81  70  69 SE5       29.91F
MCALESTER      SUNNY     81  71  71 VRB6      29.95F
$$



USA.gov is the U.S. government's official web portal to all federal, state and local government web resources and services.